EW8926 Weather Reports


Display with metric or nautical units.
time (UTC)temp
F
wind
direction
speed
MPH
gust
MPH
rain 1hr
in
rain 24hr
in
rain mn
in
humidity
%
barometer
mb
20260901083104 80 343 2.0 5.0 0.00 0.00 0.00 65 1019.1
20260901082604 80 129 2.0 5.0 0.00 0.00 0.00 66 1019.1
20260901082104 80 132 2.0 5.0 0.00 0.00 0.00 66 1019.1
20260901081104 80 138 2.0 2.0 0.00 0.00 0.00 66 1019.1
20260901080604 79 140 2.0 2.0 0.00 0.00 0.00 67 1019.0
20260901080104 79 140 2.0 5.0 0.00 0.00 0.00 68 1019.0
20260901075604 78 286 2.0 3.0 0.00 0.00 0.00 69 1019.0
20260901075104 78 128 2.0 5.0 0.00 0.00 0.00 68 1018.9
20260901074603 78 251 2.0 5.0 0.00 0.00 0.00 70 1018.9
20260901074104 78 251 2.0 5.0 0.00 0.00 0.00 72 1018.9
20260901073604 77 132 2.0 3.0 0.00 0.00 0.00 74 1019.0
20260901073104 77 158 2.0 2.0 0.00 0.00 0.00 74 1019.0
20260901072604 77 158 2.0 3.0 0.00 0.00 0.00 74 1019.0
20260901071604 76 147 2.0 3.0 0.00 0.00 0.00 78 1018.9
20260901071104 76 162 1.0 5.0 0.00 0.00 0.00 79 1018.9
20260901070604 75 217 1.0 5.0 0.00 0.00 0.00 80 1018.8
20260901070104 75 160 1.0 3.0 0.00 0.00 0.00 82 1018.8
20260901065604 74 132 1.0 3.0 0.00 0.00 0.00 83 1018.8
20260901065104 74 127 2.0 3.0 0.00 0.00 0.00 84 1018.6
20260901064603 73 229 2.0 2.0 0.00 0.00 0.00 86 1018.6
20260901064104 73 237 2.0 2.0 0.00 0.00 0.00 87 1018.6
20260901063104 71 241 1.0 3.0 0.00 0.00 0.00 89 1018.4
20260901062604 71 236 1.0 3.0 0.00 0.00 0.00 90 1018.4
20260901062104 71 243 1.0 2.0 0.00 0.00 0.00 91 1018.3
20260901061605 70 243 1.0 3.0 0.00 0.00 0.00 91 1018.3
20260901061107 70 251 1.0 2.0 0.00 0.00 0.00 91 1018.3
20260901060604 70 285 1.0 3.0 0.00 0.00 0.00 92 1018.0
20260901055604 69 325 1.0 2.0 0.00 0.00 0.00 93 1018.0
20260901055104 69 325 0.0 2.0 0.00 0.00 0.00 93 1017.8
20260901054104 68 325 0.0 2.0 0.00 0.00 0.00 92 1017.8
20260901053604 68 325 0.0 0.0 0.00 0.00 0.00 91 1017.7
20260901053104 68 325 0.0 2.0 0.00 0.00 0.00 91 1017.7
20260901052604 67 325 0.0 2.0 0.00 0.00 0.00 91 1017.7
20260901052104 67 325 1.0 2.0 0.00 0.00 0.00 91 1017.5
20260901051604 67 325 1.0 2.0 0.00 0.00 0.00 90 1017.5
20260901050604 68 325 1.0 2.0 0.00 0.00 0.00 90 1017.5
20260901050104 68 325 0.0 2.0 0.00 0.00 0.00 90 1017.5
20260901045604 68 325 0.0 3.0 0.00 0.00 0.00 90 1017.5
20260901045104 68 325 0.0 2.0 0.00 0.00 0.00 90 1017.4
20260901044103 68 325 0.0 3.0 0.00 0.00 0.00 90 1017.4
20260901041604 68 325 0.0 1.0 0.00 0.00 0.00 91 1017.1
20260901041104 68 325 0.0 0.0 0.00 0.00 0.00 90 1017.1
20260901040604 68 325 0.0 2.0 0.00 0.00 0.00 90 1017.0
20260901040104 68 325 0.0 2.0 0.00 0.00 0.00 90 1017.0
20260901035604 68 325 0.0 0.0 0.00 0.00 0.00 90 1017.0
20260901035104 68 325 0.0 2.0 0.00 0.00 0.00 90 1016.9
20260901034604 68 325 0.0 0.0 0.00 0.00 0.00 89 1016.9
20260901034104 69 325 0.0 2.0 0.00 0.00 0.00 89 1016.9
20260901033604 69 325 0.0 1.0 0.00 0.00 0.00 89 1016.9
20260901033104 69 325 0.0 0.0 0.00 0.00 0.00 89 1016.9
20260901032604 69 325 0.0 2.0 0.00 0.00 0.00 89 1016.9
20260901032104 69 325 0.0 2.0 0.00 0.00 0.00 89 1016.7
20260901031604 69 325 0.0 0.0 0.00 0.00 0.00 89 1016.7
20260901031104 69 325 0.0 2.0 0.00 0.00 0.00 89 1016.7
20260901030604 69 325 0.0 0.0 0.00 0.00 0.00 88 1016.7
20260901030104 69 325 0.0 0.0 0.00 0.00 0.00 88 1016.7
20260901025604 69 325 0.0 0.0 0.00 0.00 0.00 88 1016.7
20260901024104 69 325 0.0 0.0 0.00 0.00 0.00 87 1016.7
20260901023603 69 325 0.0 0.0 0.00 0.00 0.00 87 1016.6
20260901023104 69 325 0.0 0.0 0.00 0.00 0.00 87 1016.6
20260901022603 69 325 0.0 0.0 0.00 0.00 0.00 87 1016.6
20260901022104 69 325 0.0 0.0 0.00 0.00 0.00 87 1016.5
20260901021603 70 325 0.0 0.0 0.00 0.00 0.00 86 1016.5
20260901020604 70 325 0.0 0.0 0.00 0.00 0.00 86 1016.5
20260901020104 70 325 0.0 0.0 0.00 0.00 0.00 85 1016.5
20260901015604 70 325 0.0 2.0 0.00 0.00 0.00 85 1016.5
20260901015104 70 325 0.0 2.0 0.00 0.00 0.00 85 1016.5
20260901014604 71 325 0.0 0.0 0.00 0.00 0.00 84 1016.5
20260901014104 71 325 0.0 0.0 0.00 0.00 0.00 84 1016.5
20260901013604 71 325 0.0 0.0 0.00 0.00 0.00 84 1016.6
20260901013103 71 325 0.0 0.0 0.00 0.00 0.00 84 1016.6
20260901012604 71 325 0.0 0.0 0.00 0.00 0.00 83 1016.6
20260901011604 71 325 0.0 1.0 0.00 0.00 0.00 83 1016.6
20260901011104 71 325 0.0 0.0 0.00 0.00 0.00 83 1016.6
20260901010604 71 325 0.0 1.0 0.00 0.00 0.00 83 1016.4
20260901010104 72 325 0.0 2.0 0.00 0.00 0.00 83 1016.4
20260901005604 72 325 0.0 1.0 0.00 0.00 0.00 83 1016.4
20260901005104 72 325 0.0 2.0 0.00 0.00 0.00 83 1016.5
20260901004604 72 325 0.0 2.0 0.00 0.00 0.00 83 1016.5
20260901003604 72 325 0.0 2.0 0.00 0.00 0.00 83 1016.4
20260901003104 72 325 0.0 2.0 0.00 0.00 0.00 83 1016.4
20260901002604 72 325 0.0 2.0 0.00 0.00 0.00 83 1016.4
20260901001604 72 325 0.0 2.0 0.00 0.00 0.00 83 1016.4
20260901001104 72 325 0.0 2.0 0.00 0.00 0.00 83 1016.4
20260901000604 72 325 0.0 2.0 0.00 0.00 0.00 83 1016.3
20260901000104 72 325 1.0 2.0 0.00 0.00 0.00 83 1016.3
20260831235604 72 325 1.0 2.0 0.00 0.00 0.00 83 1016.3
20260831235104 72 325 2.0 2.0 0.00 0.00 0.00 83 1016.3
20260831234604 72 8 2.0 5.0 0.00 0.00 0.00 83 1016.3
20260831233604 72 6 0.0 3.0 0.00 0.00 0.00 83 1016.3
20260831233103 72 336 0.0 2.0 0.00 0.00 0.00 82 1016.3
20260831232603 72 336 0.0 2.0 0.00 0.00 0.00 82 1016.3
20260831232104 72 336 0.0 2.0 0.00 0.00 0.00 82 1016.3
20260831231604 72 336 0.0 2.0 0.00 0.00 0.00 82 1016.3
20260831231104 72 336 1.0 2.0 0.00 0.00 0.00 82 1016.3
20260831230104 72 336 1.0 2.0 0.00 0.00 0.00 82 1016.3
20260831225604 72 336 1.0 2.0 0.00 0.00 0.00 82 1016.3
20260831225104 72 336 0.0 3.0 0.00 0.00 0.00 82 1016.4
20260831224104 72 333 0.0 0.0 0.00 0.00 0.00 81 1016.4
20260831223604 72 333 0.0 0.0 0.00 0.00 0.00 80 1016.2
20260831223104 72 333 0.0 0.0 0.00 0.00 0.00 81 1016.2
20260831222604 72 333 0.0 2.0 0.00 0.00 0.00 81 1016.2
20260831222104 72 333 1.0 1.0 0.00 0.00 0.00 80 1016.1
20260831221603 72 333 1.0 2.0 0.00 0.00 0.00 80 1016.1
20260831221104 72 333 0.0 2.0 0.00 0.00 0.00 80 1016.1
20260831220604 72 333 0.0 2.0 0.00 0.00 0.00 80 1016.0
20260831220104 73 333 0.0 0.0 0.00 0.00 0.00 79 1016.0
20260831215604 73 333 0.0 0.0 0.00 0.00 0.00 79 1016.0
20260831214605 73 333 0.0 0.0 0.00 0.00 0.00 77 1015.8
20260831213604 74 333 0.0 0.0 0.00 0.00 0.00 76 1015.8
20260831213104 74 333 0.0 0.0 0.00 0.00 0.00 75 1015.8
20260831212103 75 333 2.0 2.0 0.00 0.00 0.00 75 1015.6
20260831210603 75 334 1.0 2.0 0.00 0.00 0.00 75 1015.5
20260831210103 75 329 2.0 2.0 0.00 0.00 0.00 75 1015.5
20260831205604 76 355 2.0 5.0 0.00 0.00 0.00 75 1015.5
20260831205104 76 354 1.0 5.0 0.00 0.00 0.00 75 1015.4
20260831204604 76 335 1.0 3.0 0.00 0.00 0.00 75 1015.4
20260831204104 76 353 2.0 3.0 0.00 0.00 0.00 75 1015.4
20260831203604 76 328 2.0 3.0 0.00 0.00 0.00 75 1015.2
20260831203104 76 317 2.0 5.0 0.00 0.00 0.00 74 1015.2
20260831202104 76 8 3.0 5.0 0.00 0.00 0.00 74 1015.0
20260831201604 76 331 3.0 5.0 0.00 0.00 0.00 74 1015.0
20260831201104 76 335 2.0 8.0 0.00 0.00 0.00 74 1015.0
20260831200604 76 314 2.0 5.0 0.00 0.00 0.00 74 1015.0
20260831195104 77 315 2.0 7.0 0.00 0.00 0.00 73 1014.9
20260831194604 77 338 2.0 7.0 0.00 0.00 0.00 73 1014.9
20260831194104 77 346 2.0 6.0 0.00 0.00 0.00 72 1014.9
20260831193604 77 319 2.0 6.0 0.00 0.00 0.00 72 1014.6
20260831192104 77 328 3.0 5.0 0.00 0.00 0.00 72 1014.6
20260831191604 77 337 3.0 7.0 0.00 0.00 0.00 73 1014.6
20260831191104 77 324 4.0 8.0 0.00 0.00 0.00 73 1014.6
20260831190604 77 315 5.0 8.0 0.00 0.00 0.00 73 1014.5
20260831190104 78 319 5.0 12.0 0.00 0.00 0.00 73 1014.5
20260831185604 78 326 5.0 8.0 0.00 0.00 0.00 72 1014.5
20260831185104 78 314 5.0 9.0 0.00 0.00 0.00 72 1014.3
20260831184104 78 321 3.0 7.0 0.00 0.00 0.00 71 1014.3
20260831183604 78 329 3.0 7.0 0.00 0.00 0.00 71 1014.3
20260831183104 78 334 3.0 6.0 0.00 0.00 0.00 70 1014.3
20260831182604 78 337 3.0 6.0 0.00 0.00 0.00 70 1014.3
20260831182104 79 332 3.0 6.0 0.00 0.00 0.00 69 1014.3
20260831181603 79 315 3.0 6.0 0.00 0.00 0.00 69 1014.3
20260831181104 79 336 3.0 6.0 0.00 0.00 0.00 68 1014.3
20260831180604 79 326 3.0 7.0 0.00 0.00 0.00 68 1014.1
20260831180104 79 329 4.0 7.0 0.00 0.00 0.00 67 1014.1
20260831175604 80 332 5.0 8.0 0.00 0.00 0.00 67 1014.1
20260831175104 80 340 5.0 8.0 0.00 0.00 0.00 66 1014.1
20260831174604 80 330 5.0 8.0 0.00 0.00 0.00 66 1014.1
20260831173604 81 325 5.0 9.0 0.00 0.00 0.00 64 1014.2
20260831173104 82 338 3.0 8.0 0.00 0.00 0.00 63 1014.2
20260831172604 82 322 3.0 8.0 0.00 0.00 0.00 63 1014.2
20260831172104 83 342 4.0 8.0 0.00 0.00 0.00 62 1014.1
20260831171604 83 306 5.0 6.0 0.00 0.00 0.00 60 1014.1
20260831171104 83 321 3.0 5.0 0.00 0.00 0.00 59 1014.1
20260831170604 83 326 3.0 8.0 0.00 0.00 0.00 58 1014.0
20260831170104 84 354 3.0 9.0 0.00 0.00 0.00 58 1014.0
20260831165604 84 330 3.0 7.0 0.00 0.00 0.00 57 1014.0
20260831164604 84 340 3.0 7.0 0.00 0.00 0.00 56 1014.1
20260831164103 84 2 4.0 8.0 0.00 0.00 0.00 56 1014.1
20260831163603 85 334 5.0 6.0 0.00 0.00 0.00 55 1014.1
20260831162603 85 340 3.0 8.0 0.00 0.00 0.00 54 1014.1
20260831162104 85 323 4.0 6.0 0.00 0.00 0.00 53 1014.3
20260831161604 86 351 5.0 9.0 0.00 0.00 0.00 51 1014.3
20260831161104 86 333 5.0 7.0 0.00 0.00 0.00 50 1014.3
20260831160604 86 321 5.0 8.0 0.00 0.00 0.00 49 1014.3
20260831155604 87 330 5.0 7.0 0.00 0.00 0.00 49 1014.3
20260831155104 87 317 5.0 7.0 0.00 0.00 0.00 48 1014.3
20260831154603 87 316 5.0 7.0 0.00 0.00 0.00 47 1014.3
20260831153604 88 323 5.0 10.0 0.00 0.00 0.00 47 1014.4
20260831153104 88 326 5.0 12.0 0.00 0.00 0.00 47 1014.4
20260831152604 88 334 5.0 9.0 0.00 0.00 0.00 48 1014.4
20260831152104 88 328 5.0 14.0 0.00 0.00 0.00 48 1014.5
20260831151104 89 317 5.0 9.0 0.00 0.00 0.00 49 1014.5
20260831150604 89 334 5.0 9.0 0.00 0.00 0.00 48 1014.5
20260831150105 89 325 5.0 8.0 0.00 0.00 0.00 47 1014.5
20260831145604 89 313 5.0 13.0 0.00 0.00 0.00 48 1014.5
20260831145104 89 327 6.0 9.0 0.00 0.00 0.00 46 1014.5
20260831144604 89 328 6.0 12.0 0.00 0.00 0.00 48 1014.5
20260831144104 89 323 7.0 12.0 0.00 0.00 0.00 49 1014.5
20260831143603 90 321 7.0 14.0 0.00 0.00 0.00 49 1014.5
20260831143104 90 313 5.0 14.0 0.00 0.00 0.00 48 1014.5
20260831142604 90 322 5.0 14.0 0.00 0.00 0.00 47 1014.5
20260831142104 91 315 5.0 10.0 0.00 0.00 0.00 46 1014.4
20260831141604 90 335 6.0 13.0 0.00 0.00 0.00 47 1014.4
20260831141104 90 311 7.0 13.0 0.00 0.00 0.00 48 1014.4
20260831135604 90 315 6.0 13.0 0.00 0.00 0.00 46 1014.5
20260831135104 91 313 5.0 14.0 0.00 0.00 0.00 45 1014.7
20260831134604 91 339 5.0 9.0 0.00 0.00 0.00 45 1014.7
20260831134104 91 324 5.0 8.0 0.00 0.00 0.00 45 1014.7
20260831133104 91 347 5.0 10.0 0.00 0.00 0.00 45 1014.7
20260831132604 91 326 6.0 13.0 0.00 0.00 0.00 45 1014.7
20260831132104 91 333 5.0 13.0 0.00 0.00 0.00 45 1014.7
20260831131604 92 329 5.0 12.0 0.00 0.00 0.00 44 1014.7
20260831131104 92 324 5.0 9.0 0.00 0.00 0.00 43 1014.7
20260831130604 92 309 5.0 7.0 0.00 0.00 0.00 44 1014.8
20260831130104 92 310 5.0 7.0 0.00 0.00 0.00 43 1014.8
20260831125604 91 333 5.0 8.0 0.00 0.00 0.00 44 1014.8
20260831125104 91 315 6.0 12.0 0.00 0.00 0.00 44 1014.8
20260831124604 91 322 6.0 9.0 0.00 0.00 0.00 44 1014.8
20260831123604 90 317 6.0 12.0 0.00 0.00 0.00 45 1014.9
20260831123104 90 322 6.0 10.0 0.00 0.00 0.00 46 1014.9
20260831122104 90 316 5.0 13.0 0.00 0.00 0.00 46 1015.2
20260831121604 90 324 5.0 10.0 0.00 0.00 0.00 46 1015.2
20260831121104 90 304 5.0 9.0 0.00 0.00 0.00 46 1015.2
20260831120604 90 312 6.0 9.0 0.00 0.00 0.00 48 1015.2
20260831115604 90 317 5.0 10.0 0.00 0.00 0.00 47 1015.2
20260831115103 89 339 3.0 12.0 0.00 0.00 0.00 48 1015.4
20260831114604 89 319 2.0 9.0 0.00 0.00 0.00 49 1015.4
20260831114104 89 347 2.0 5.0 0.00 0.00 0.00 47 1015.4
20260831113604 90 321 2.0 5.0 0.00 0.00 0.00 47 1015.5
20260831113104 90 135 2.0 5.0 0.00 0.00 0.00 48 1015.5
20260831112603 90 311 2.0 6.0 0.00 0.00 0.00 46 1015.5
20260831112104 90 305 3.0 5.0 0.00 0.00 0.00 46 1015.6
20260831111603 90 307 3.0 5.0 0.00 0.00 0.00 47 1015.6
20260831111104 90 164 2.0 5.0 0.00 0.00 0.00 47 1015.6
20260831110104 90 305 2.0 9.0 0.00 0.00 0.00 46 1015.8
20260831105604 90 139 2.0 5.0 0.00 0.00 0.00 46 1015.8
20260831105105 90 125 2.0 7.0 0.00 0.00 0.00 46 1015.9
20260831104604 90 333 2.0 6.0 0.00 0.00 0.00 46 1015.9
20260831104104 90 357 2.0 5.0 0.00 0.00 0.00 48 1015.9
20260831103604 89 228 2.0 5.0 0.00 0.00 0.00 48 1015.9
20260831103103 89 320 2.0 3.0 0.00 0.00 0.00 46 1015.9
20260831102604 89 26 2.0 3.0 0.00 0.00 0.00 47 1015.9
20260831102105 88 296 2.0 5.0 0.00 0.00 0.00 47 1016.0
20260831101104 88 353 2.0 5.0 0.00 0.00 0.00 48 1016.0
20260831100604 88 157 2.0 5.0 0.00 0.00 0.00 48 1016.1
20260831100104 88 75 2.0 6.0 0.00 0.00 0.00 49 1016.1
20260831095604 88 309 2.0 5.0 0.00 0.00 0.00 49 1016.1
20260831095104 87 316 2.0 6.0 0.00 0.00 0.00 49 1016.2
20260831094604 87 294 2.0 7.0 0.00 0.00 0.00 50 1016.2
20260831093604 87 341 2.0 5.0 0.00 0.00 0.00 49 1016.4
20260831093104 87 337 2.0 5.0 0.00 0.00 0.00 51 1016.4
20260831092604 87 306 2.0 5.0 0.00 0.00 0.00 50 1016.4
20260831091604 86 357 2.0 5.0 0.00 0.00 0.00 52 1016.5
20260831091104 86 40 2.0 5.0 0.00 0.00 0.00 53 1016.5
20260831090604 86 68 2.0 3.0 0.00 0.00 0.00 52 1016.5
20260831085604 85 332 2.0 7.0 0.00 0.00 0.00 55 1016.5
20260831085105 85 122 2.0 5.0 0.00 0.00 0.00 55 1016.7
20260831084604 84 339 2.0 3.0 0.00 0.00 0.00 55 1016.7
20260831084104 84 344 2.0 6.0 0.00 0.00 0.00 55 1016.7
20260831083604 84 30 2.0 5.0 0.00 0.00 0.00 56 1016.5